Year,Month,Day,Hour,Minute,Value (Times are PST for temperature in C)
2020,08,14,00,00,14.60
2020,08,14,00,01,14.60
2020,08,14,00,02,14.60
2020,08,14,00,03,14.60
2020,08,14,00,04,14.50
2020,08,14,00,05,14.50
2020,08,14,00,06,14.50
2020,08,14,00,07,14.50
2020,08,14,00,08,14.50
2020,08,14,00,09,14.40
2020,08,14,00,10,14.40
2020,08,14,00,11,14.40
2020,08,14,00,12,14.40
2020,08,14,00,13,14.40
2020,08,14,00,14,14.40
2020,08,14,00,15,14.40
2020,08,14,00,16,14.40
2020,08,14,00,17,14.40
2020,08,14,00,18,14.30
2020,08,14,00,19,14.30
2020,08,14,00,20,14.30
2020,08,14,00,21,14.30
2020,08,14,00,22,14.30
2020,08,14,00,23,14.30
2020,08,14,00,24,14.30
2020,08,14,00,25,14.30
2020,08,14,00,26,14.30
2020,08,14,00,27,14.20
2020,08,14,00,28,14.20
2020,08,14,00,29,14.20
2020,08,14,00,30,14.20
2020,08,14,00,31,14.20
2020,08,14,00,32,14.20
2020,08,14,00,33,14.20
2020,08,14,00,34,14.20
2020,08,14,00,35,14.20
2020,08,14,00,36,14.20
2020,08,14,00,37,14.20
2020,08,14,00,38,14.20
2020,08,14,00,39,14.20
2020,08,14,00,40,14.20
2020,08,14,00,41,14.20
2020,08,14,00,42,14.20
2020,08,14,00,43,14.20
2020,08,14,00,44,14.20
2020,08,14,00,45,14.20
2020,08,14,00,46,14.20
2020,08,14,00,47,14.20
2020,08,14,00,48,14.20
2020,08,14,00,49,14.10
2020,08,14,00,50,14.10
2020,08,14,00,51,14.10
2020,08,14,00,52,14.10
2020,08,14,00,53,14.10
2020,08,14,00,54,14.10
2020,08,14,00,55,14.10
2020,08,14,00,56,14.10
2020,08,14,00,57,14.10
2020,08,14,00,58,14.10
2020,08,14,00,59,14.10
2020,08,14,01,00,14.10
2020,08,14,01,01,14.10
2020,08,14,01,02,14.10
2020,08,14,01,03,14.00
2020,08,14,01,04,14.00
2020,08,14,01,05,14.00
2020,08,14,01,06,14.00
2020,08,14,01,07,14.00
2020,08,14,01,08,14.00
2020,08,14,01,09,14.00
2020,08,14,01,10,13.90
2020,08,14,01,11,13.90
2020,08,14,01,12,13.90
2020,08,14,01,13,13.90
2020,08,14,01,14,13.90
2020,08,14,01,15,13.90
2020,08,14,01,16,13.90
2020,08,14,01,17,13.80
2020,08,14,01,18,13.80
2020,08,14,01,19,13.80
2020,08,14,01,20,13.80
2020,08,14,01,21,13.80
2020,08,14,01,22,13.80
2020,08,14,01,23,13.80
2020,08,14,01,24,13.80
2020,08,14,01,25,13.80
2020,08,14,01,26,13.80
2020,08,14,01,27,13.80
2020,08,14,01,28,13.80
2020,08,14,01,29,13.80
2020,08,14,01,30,13.80
2020,08,14,01,31,13.70
2020,08,14,01,32,13.70
2020,08,14,01,33,13.70
2020,08,14,01,34,13.70
2020,08,14,01,35,13.70
2020,08,14,01,36,13.70
2020,08,14,01,37,13.70
2020,08,14,01,38,13.70
2020,08,14,01,39,13.70
2020,08,14,01,40,13.70
2020,08,14,01,41,13.70
2020,08,14,01,42,13.70
2020,08,14,01,43,13.70
2020,08,14,01,44,13.60
2020,08,14,01,45,13.60
2020,08,14,01,46,13.60
2020,08,14,01,47,13.60
2020,08,14,01,48,13.60
2020,08,14,01,49,13.60
2020,08,14,01,50,13.60
2020,08,14,01,51,13.50
2020,08,14,01,52,13.50
2020,08,14,01,53,13.50
2020,08,14,01,54,13.40
2020,08,14,01,55,13.40
2020,08,14,01,56,13.40
2020,08,14,01,57,13.40
2020,08,14,01,58,13.30
2020,08,14,01,59,13.30
2020,08,14,02,00,13.30
2020,08,14,02,01,13.30
2020,08,14,02,02,13.30
2020,08,14,02,03,13.20
2020,08,14,02,04,13.20
2020,08,14,02,05,13.20
2020,08,14,02,06,13.20
2020,08,14,02,07,13.20
2020,08,14,02,08,13.10
2020,08,14,02,09,13.10
2020,08,14,02,10,13.10
2020,08,14,02,11,13.10
2020,08,14,02,12,13.10
2020,08,14,02,13,13.10
2020,08,14,02,14,13.10
2020,08,14,02,15,13.10
2020,08,14,02,16,13.10
2020,08,14,02,17,13.00
2020,08,14,02,18,13.00
2020,08,14,02,19,13.00
2020,08,14,02,20,13.00
2020,08,14,02,21,13.00
2020,08,14,02,22,12.90
2020,08,14,02,23,12.90
2020,08,14,02,24,12.90
2020,08,14,02,25,12.80
2020,08,14,02,26,12.80
2020,08,14,02,27,12.80
2020,08,14,02,28,12.80
2020,08,14,02,29,12.80
2020,08,14,02,30,12.80
2020,08,14,02,31,12.80
2020,08,14,02,32,12.70
2020,08,14,02,33,12.70
2020,08,14,02,34,12.70
2020,08,14,02,35,12.70
2020,08,14,02,36,12.70
2020,08,14,02,37,12.70
2020,08,14,02,38,12.60
2020,08,14,02,39,12.60
2020,08,14,02,40,12.60
2020,08,14,02,41,12.60
2020,08,14,02,42,12.60
2020,08,14,02,43,12.60
2020,08,14,02,44,12.60
2020,08,14,02,45,12.60
2020,08,14,02,46,12.50
2020,08,14,02,47,12.50
2020,08,14,02,48,12.50
2020,08,14,02,49,12.50
2020,08,14,02,50,12.40
2020,08,14,02,51,12.40
2020,08,14,02,52,12.40
2020,08,14,02,53,12.40
2020,08,14,02,54,12.30
2020,08,14,02,55,12.30
2020,08,14,02,56,12.30
2020,08,14,02,57,12.30
2020,08,14,02,58,12.20
2020,08,14,02,59,12.20
2020,08,14,03,00,12.20
2020,08,14,03,01,12.20
2020,08,14,03,02,12.20
2020,08,14,03,03,12.10
2020,08,14,03,04,12.10
2020,08,14,03,05,12.10
2020,08,14,03,06,12.10
2020,08,14,03,07,12.10
2020,08,14,03,08,12.10
2020,08,14,03,09,12.10
2020,08,14,03,10,12.00
2020,08,14,03,11,12.00
2020,08,14,03,12,12.00
2020,08,14,03,13,12.00
2020,08,14,03,14,12.00
2020,08,14,03,15,12.00
2020,08,14,03,16,12.00
2020,08,14,03,17,12.00
2020,08,14,03,18,11.90
2020,08,14,03,19,11.90
2020,08,14,03,20,11.90
2020,08,14,03,21,11.90
2020,08,14,03,22,11.90
2020,08,14,03,23,11.80
2020,08,14,03,24,11.80
2020,08,14,03,25,11.80
2020,08,14,03,26,11.80
2020,08,14,03,27,11.80
2020,08,14,03,28,11.80
2020,08,14,03,29,11.80
2020,08,14,03,30,11.70
2020,08,14,03,31,11.70
2020,08,14,03,32,11.70
2020,08,14,03,33,11.70
2020,08,14,03,34,11.70
2020,08,14,03,35,11.60
2020,08,14,03,36,11.60
2020,08,14,03,37,11.60
2020,08,14,03,38,11.60
2020,08,14,03,39,11.60
2020,08,14,03,40,11.50
2020,08,14,03,41,11.50
2020,08,14,03,42,11.50
2020,08,14,03,43,11.50
2020,08,14,03,44,11.50
2020,08,14,03,45,11.50
2020,08,14,03,46,11.50
2020,08,14,03,47,11.50
2020,08,14,03,48,11.40
2020,08,14,03,49,11.40
2020,08,14,03,50,11.40
2020,08,14,03,51,11.40
2020,08,14,03,52,11.40
2020,08,14,03,53,11.40
2020,08,14,03,54,11.40
2020,08,14,03,55,11.40
2020,08,14,03,56,11.40
2020,08,14,03,57,11.40
2020,08,14,03,58,11.30
2020,08,14,03,59,11.30
2020,08,14,04,00,11.30
2020,08,14,04,01,11.30
2020,08,14,04,02,11.30
2020,08,14,04,03,11.30
2020,08,14,04,04,11.30
2020,08,14,04,05,11.30
2020,08,14,04,06,11.30
2020,08,14,04,07,11.30
2020,08,14,04,08,11.20
2020,08,14,04,09,11.20
2020,08,14,04,10,11.20
2020,08,14,04,11,11.20
2020,08,14,04,12,11.20
2020,08,14,04,13,11.20
2020,08,14,04,14,11.20
2020,08,14,04,15,11.20
2020,08,14,04,16,11.10
2020,08,14,04,17,11.10
2020,08,14,04,18,11.10
2020,08,14,04,19,11.10
2020,08,14,04,20,11.10
2020,08,14,04,21,11.10
2020,08,14,04,22,11.10
2020,08,14,04,23,11.10
2020,08,14,04,24,11.10
2020,08,14,04,25,11.10
2020,08,14,04,26,11.10
2020,08,14,04,27,11.10
2020,08,14,04,28,11.00
2020,08,14,04,29,11.00
2020,08,14,04,30,11.00
2020,08,14,04,31,11.00
2020,08,14,04,32,11.00
2020,08,14,04,33,11.00
2020,08,14,04,34,10.90
2020,08,14,04,35,10.90
2020,08,14,04,36,10.90
2020,08,14,04,37,10.90
2020,08,14,04,38,10.90
2020,08,14,04,39,10.90
2020,08,14,04,40,10.90
2020,08,14,04,41,10.90
2020,08,14,04,42,10.90
2020,08,14,04,43,10.90
2020,08,14,04,44,10.90
2020,08,14,04,45,10.80
2020,08,14,04,46,10.80
2020,08,14,04,47,10.80
2020,08,14,04,48,10.80
2020,08,14,04,49,10.80
2020,08,14,04,50,10.80
2020,08,14,04,51,10.80
2020,08,14,04,52,10.80
2020,08,14,04,53,10.80
2020,08,14,04,54,10.80
2020,08,14,04,55,10.80
2020,08,14,04,56,10.80
2020,08,14,04,57,10.80
2020,08,14,04,58,10.80
2020,08,14,04,59,10.70
2020,08,14,05,00,10.70
2020,08,14,05,01,10.70
2020,08,14,05,02,10.70
2020,08,14,05,03,10.70
2020,08,14,05,04,10.70
2020,08,14,05,05,10.70
2020,08,14,05,06,10.70
2020,08,14,05,07,10.70
2020,08,14,05,08,10.70
2020,08,14,05,09,10.70
2020,08,14,05,10,10.70
2020,08,14,05,11,10.70
2020,08,14,05,12,10.60
2020,08,14,05,13,10.60
2020,08,14,05,14,10.60
2020,08,14,05,15,10.60
2020,08,14,05,16,10.60
2020,08,14,05,17,10.60
2020,08,14,05,18,10.60
2020,08,14,05,19,10.60
2020,08,14,05,20,10.60
2020,08,14,05,21,10.50
2020,08,14,05,22,10.50
2020,08,14,05,23,10.50
2020,08,14,05,24,10.50
2020,08,14,05,25,10.50
2020,08,14,05,26,10.50
2020,08,14,05,27,10.50
2020,08,14,05,28,10.50
2020,08,14,05,29,10.40
2020,08,14,05,30,10.40
2020,08,14,05,31,10.40
2020,08,14,05,32,10.40
2020,08,14,05,33,10.40
2020,08,14,05,34,10.40
2020,08,14,05,35,10.40
2020,08,14,05,36,10.40
2020,08,14,05,37,10.40
2020,08,14,05,38,10.40
2020,08,14,05,39,10.40
2020,08,14,05,40,10.40
2020,08,14,05,41,10.40
2020,08,14,05,42,10.30
2020,08,14,05,43,10.30
2020,08,14,05,44,10.30
2020,08,14,05,45,10.30
2020,08,14,05,46,10.30
2020,08,14,05,47,10.30
2020,08,14,05,48,10.30
2020,08,14,05,49,10.30
2020,08,14,05,50,10.30
2020,08,14,05,51,10.30
2020,08,14,05,52,10.30
2020,08,14,05,53,10.30
2020,08,14,05,54,10.30
2020,08,14,05,55,10.20
2020,08,14,05,56,10.20
2020,08,14,05,57,10.20
2020,08,14,05,58,10.20
2020,08,14,05,59,10.20
2020,08,14,06,00,10.20
2020,08,14,06,01,10.20
2020,08,14,06,02,10.20
2020,08,14,06,03,10.20
2020,08,14,06,04,10.20
2020,08,14,06,05,10.10
2020,08,14,06,06,10.10
2020,08,14,06,07,10.10
2020,08,14,06,08,10.10
2020,08,14,06,09,10.10
2020,08,14,06,10,10.10
2020,08,14,06,11,10.10
2020,08,14,06,12,10.10
2020,08,14,06,13,10.10
2020,08,14,06,14,10.10
2020,08,14,06,15,10.10
2020,08,14,06,16,10.10
2020,08,14,06,17,10.10
2020,08,14,06,18,10.10
2020,08,14,06,19,10.10
2020,08,14,06,20,10.00
2020,08,14,06,21,10.00
2020,08,14,06,22,10.00
2020,08,14,06,23,10.00
2020,08,14,06,24,10.00
2020,08,14,06,25,10.00
2020,08,14,06,26,10.00
2020,08,14,06,27,10.00
2020,08,14,06,28,9.90
2020,08,14,06,29,9.90
2020,08,14,06,30,9.90
2020,08,14,06,31,9.90
2020,08,14,06,32,9.90
2020,08,14,06,33,9.90
2020,08,14,06,34,9.90
2020,08,14,06,35,9.80
2020,08,14,06,36,9.80
2020,08,14,06,37,9.80
2020,08,14,06,38,9.80
2020,08,14,06,39,9.80
2020,08,14,06,40,9.80
2020,08,14,06,41,9.80
2020,08,14,06,42,9.80
2020,08,14,06,43,9.80
2020,08,14,06,44,9.80
2020,08,14,06,45,9.80
2020,08,14,06,46,9.80
2020,08,14,06,47,9.80
2020,08,14,06,48,9.80
2020,08,14,06,49,9.80
2020,08,14,06,50,9.80
2020,08,14,06,51,9.80
2020,08,14,06,52,9.80
2020,08,14,06,53,9.90
2020,08,14,06,54,9.90
2020,08,14,06,55,9.90
2020,08,14,06,56,9.90
2020,08,14,06,57,9.90
2020,08,14,06,58,9.90
2020,08,14,06,59,9.90
2020,08,14,07,00,9.90
2020,08,14,07,01,10.00
2020,08,14,07,02,10.00
2020,08,14,07,03,10.00
2020,08,14,07,04,10.00
2020,08,14,07,05,10.00
2020,08,14,07,06,10.10
2020,08,14,07,07,10.10
2020,08,14,07,08,10.10
2020,08,14,07,09,10.10
2020,08,14,07,10,10.20
2020,08,14,07,11,10.20
2020,08,14,07,12,10.20
2020,08,14,07,13,10.30
2020,08,14,07,14,10.30
2020,08,14,07,15,10.30
2020,08,14,07,16,10.40
2020,08,14,07,17,10.40
2020,08,14,07,18,10.50
2020,08,14,07,19,10.50
2020,08,14,07,20,10.60
2020,08,14,07,21,10.60
2020,08,14,07,22,10.60
2020,08,14,07,23,10.70
2020,08,14,07,24,10.70
2020,08,14,07,25,10.80
2020,08,14,07,26,10.80
2020,08,14,07,27,10.90
2020,08,14,07,28,10.90
2020,08,14,07,29,11.00
2020,08,14,07,30,11.00
2020,08,14,07,31,11.10
2020,08,14,07,32,11.10
2020,08,14,07,33,11.20
2020,08,14,07,34,11.20
2020,08,14,07,35,11.30
2020,08,14,07,36,11.40
2020,08,14,07,37,11.40
2020,08,14,07,38,11.50
2020,08,14,07,39,11.60
2020,08,14,07,40,11.60
2020,08,14,07,41,11.70
2020,08,14,07,42,11.70
2020,08,14,07,43,11.80
2020,08,14,07,44,11.80
2020,08,14,07,45,11.90
2020,08,14,07,46,11.90
2020,08,14,07,47,11.90
2020,08,14,07,48,12.00
2020,08,14,07,49,12.10
2020,08,14,07,50,12.10
2020,08,14,07,51,12.20
2020,08,14,07,52,12.20
2020,08,14,07,53,12.30
2020,08,14,07,54,12.30
2020,08,14,07,55,12.40
2020,08,14,07,56,12.40
2020,08,14,07,57,12.40
2020,08,14,07,58,12.40
2020,08,14,07,59,12.40
2020,08,14,08,00,12.50
2020,08,14,08,01,12.80
2020,08,14,08,02,12.90
2020,08,14,08,03,13.00
2020,08,14,08,04,13.10
2020,08,14,08,05,13.20
2020,08,14,08,06,13.20
2020,08,14,08,07,13.30
2020,08,14,08,08,13.40
2020,08,14,08,09,13.50
2020,08,14,08,10,13.60
2020,08,14,08,11,13.70
2020,08,14,08,12,13.80
2020,08,14,08,13,13.90
2020,08,14,08,14,14.00
2020,08,14,08,15,14.10
2020,08,14,08,16,14.20
2020,08,14,08,17,14.30
2020,08,14,08,18,14.40
2020,08,14,08,19,14.50
2020,08,14,08,20,14.60
2020,08,14,08,21,14.60
2020,08,14,08,22,14.60
2020,08,14,08,23,14.70
2020,08,14,08,24,14.70
2020,08,14,08,25,14.80
2020,08,14,08,26,14.80
2020,08,14,08,27,14.90
2020,08,14,08,28,15.00
2020,08,14,08,29,15.10
2020,08,14,08,30,15.10
2020,08,14,08,31,15.20
2020,08,14,08,32,15.30
2020,08,14,08,33,15.40
2020,08,14,08,34,15.50
2020,08,14,08,35,15.60
2020,08,14,08,36,15.70
2020,08,14,08,37,15.70
2020,08,14,08,38,15.80
2020,08,14,08,39,15.80
2020,08,14,08,40,15.90
2020,08,14,08,41,15.90
2020,08,14,08,42,16.00
2020,08,14,08,43,16.10
2020,08,14,08,44,16.10
2020,08,14,08,45,16.10
2020,08,14,08,46,16.10
2020,08,14,08,47,16.10
2020,08,14,08,48,16.10
2020,08,14,08,49,16.10
2020,08,14,08,50,16.00
2020,08,14,08,51,16.00
2020,08,14,08,52,15.90
2020,08,14,08,53,15.90
2020,08,14,08,54,15.90
2020,08,14,08,55,15.90
2020,08,14,08,56,15.90
2020,08,14,08,57,16.00
2020,08,14,08,58,16.00
2020,08,14,08,59,16.00
2020,08,14,09,00,16.00
2020,08,14,09,01,16.00
2020,08,14,09,02,16.00
2020,08,14,09,03,16.00
2020,08,14,09,04,16.10
2020,08,14,09,05,16.10
2020,08,14,09,06,16.10
2020,08,14,09,07,16.10
2020,08,14,09,08,16.00
2020,08,14,09,09,16.00
2020,08,14,09,10,16.00
2020,08,14,09,11,16.00
2020,08,14,09,12,16.00
2020,08,14,09,13,15.90
2020,08,14,09,14,15.90
2020,08,14,09,15,15.90
2020,08,14,09,16,15.90
2020,08,14,09,17,15.90
2020,08,14,09,18,15.90
2020,08,14,09,19,15.90
2020,08,14,09,20,15.90
2020,08,14,09,21,15.90
2020,08,14,09,22,15.90
2020,08,14,09,23,15.90
2020,08,14,09,24,16.00
2020,08,14,09,25,16.10
2020,08,14,09,26,16.10
2020,08,14,09,27,16.10
2020,08,14,09,28,16.20
2020,08,14,09,29,16.20
2020,08,14,09,30,16.20
2020,08,14,09,31,16.30
2020,08,14,09,32,16.40
2020,08,14,09,33,16.60
2020,08,14,09,34,16.80
2020,08,14,09,35,16.90
2020,08,14,09,36,17.10
2020,08,14,09,37,17.20
2020,08,14,09,38,17.30
2020,08,14,09,39,17.40
2020,08,14,09,40,17.40
2020,08,14,09,41,17.40
2020,08,14,09,42,17.40
2020,08,14,09,43,17.40
2020,08,14,09,44,17.40
2020,08,14,09,45,17.50
2020,08,14,09,46,17.50
2020,08,14,09,47,17.50
2020,08,14,09,48,17.50
2020,08,14,09,49,17.50
2020,08,14,09,50,17.60
2020,08,14,09,51,17.60
2020,08,14,09,52,17.60
2020,08,14,09,53,17.70
2020,08,14,09,54,17.80
2020,08,14,09,55,17.90
2020,08,14,09,56,18.00
2020,08,14,09,57,18.00
2020,08,14,09,58,18.10
2020,08,14,09,59,18.20
2020,08,14,10,00,18.20
2020,08,14,10,01,18.20
2020,08,14,10,02,18.30
2020,08,14,10,03,18.30
2020,08,14,10,04,18.30
2020,08,14,10,05,18.40
2020,08,14,10,06,18.50
2020,08,14,10,07,18.60
2020,08,14,10,08,18.60
2020,08,14,10,09,18.60
2020,08,14,10,10,18.60
2020,08,14,10,11,18.60
2020,08,14,10,12,18.60
2020,08,14,10,13,18.50
2020,08,14,10,14,18.40
2020,08,14,10,15,18.40
2020,08,14,10,16,18.30
2020,08,14,10,17,18.30
2020,08,14,10,18,18.30
2020,08,14,10,19,18.20
2020,08,14,10,20,18.30
2020,08,14,10,21,18.30
2020,08,14,10,22,18.30
2020,08,14,10,23,18.40
2020,08,14,10,24,18.50
2020,08,14,10,25,18.60
2020,08,14,10,26,18.70
2020,08,14,10,27,18.80
2020,08,14,10,28,18.90
2020,08,14,10,29,19.00
2020,08,14,10,30,19.10
2020,08,14,10,31,19.20
2020,08,14,10,32,19.30
2020,08,14,10,33,19.30
2020,08,14,10,34,19.30
2020,08,14,10,35,19.30
2020,08,14,10,36,19.30
2020,08,14,10,37,19.30
2020,08,14,10,38,19.20
2020,08,14,10,39,19.30
2020,08,14,10,40,19.30
2020,08,14,10,41,19.20
2020,08,14,10,42,19.20
2020,08,14,10,43,19.10
2020,08,14,10,44,19.10
2020,08,14,10,45,19.00
2020,08,14,10,46,18.90
2020,08,14,10,47,18.90
2020,08,14,10,48,19.00
2020,08,14,10,49,19.10
2020,08,14,10,50,19.20
2020,08,14,10,51,19.30
2020,08,14,10,52,19.30
2020,08,14,10,53,19.30
2020,08,14,10,54,19.30
2020,08,14,10,55,19.30
2020,08,14,10,56,19.30
2020,08,14,10,57,19.30
2020,08,14,10,58,19.30
2020,08,14,10,59,19.40
2020,08,14,11,00,19.50
2020,08,14,11,01,19.60
2020,08,14,11,02,19.70
2020,08,14,11,03,19.80
2020,08,14,11,04,19.90
2020,08,14,11,05,20.00
2020,08,14,11,06,20.10
2020,08,14,11,07,20.30
2020,08,14,11,08,20.30
2020,08,14,11,09,20.40
2020,08,14,11,10,20.40
2020,08,14,11,11,20.50
2020,08,14,11,12,20.50
2020,08,14,11,13,20.60
2020,08,14,11,14,20.70
2020,08,14,11,15,20.80
2020,08,14,11,16,20.90
2020,08,14,11,17,20.90
2020,08,14,11,18,20.90
2020,08,14,11,19,20.90
2020,08,14,11,20,20.90
2020,08,14,11,21,20.80
2020,08,14,11,22,20.80
2020,08,14,11,23,20.80
2020,08,14,11,24,20.90
2020,08,14,11,25,21.00
2020,08,14,11,26,21.10
2020,08,14,11,27,21.10
2020,08,14,11,28,21.20
2020,08,14,11,29,21.30
2020,08,14,11,30,21.30
2020,08,14,11,31,21.40
2020,08,14,11,32,21.40
2020,08,14,11,33,21.40
2020,08,14,11,34,21.40
2020,08,14,11,35,21.40
2020,08,14,11,36,21.40
2020,08,14,11,37,21.40
2020,08,14,11,38,21.40
2020,08,14,11,39,21.50
2020,08,14,11,40,21.50
2020,08,14,11,41,21.60
2020,08,14,11,42,21.70
2020,08,14,11,43,21.80
2020,08,14,11,44,21.80
2020,08,14,11,45,21.80
2020,08,14,11,46,21.90
2020,08,14,11,47,21.90
2020,08,14,11,48,21.90
2020,08,14,11,49,22.00
2020,08,14,11,50,22.00
2020,08,14,11,51,22.10
2020,08,14,11,52,22.20
2020,08,14,11,53,22.20
2020,08,14,11,54,22.20
2020,08,14,11,55,22.30
2020,08,14,11,56,22.30
2020,08,14,11,57,22.40
2020,08,14,11,58,22.40
2020,08,14,11,59,22.50
2020,08,14,12,00,22.50
2020,08,14,12,01,22.50
2020,08,14,12,02,22.60
2020,08,14,12,03,22.70
2020,08,14,12,04,22.70
2020,08,14,12,05,22.70
2020,08,14,12,06,22.70
2020,08,14,12,07,22.70
2020,08,14,12,08,22.70
2020,08,14,12,09,22.70
2020,08,14,12,10,22.70
2020,08,14,12,11,22.80
2020,08,14,12,12,22.80
2020,08,14,12,13,22.90
2020,08,14,12,14,22.90
2020,08,14,12,15,22.90
2020,08,14,12,16,22.90
2020,08,14,12,17,23.00
2020,08,14,12,18,23.00
2020,08,14,12,19,23.10
2020,08,14,12,20,23.10
2020,08,14,12,21,23.20
2020,08,14,12,22,23.20
2020,08,14,12,23,23.20
2020,08,14,12,24,23.20
2020,08,14,12,25,23.30
2020,08,14,12,26,23.40
2020,08,14,12,27,23.50
2020,08,14,12,28,23.60
2020,08,14,12,29,23.60
2020,08,14,12,30,23.70
2020,08,14,12,31,23.70
2020,08,14,12,32,23.80
2020,08,14,12,33,23.80
2020,08,14,12,34,23.80
2020,08,14,12,35,23.90
2020,08,14,12,36,23.90
2020,08,14,12,37,23.90
2020,08,14,12,38,23.90
2020,08,14,12,39,23.90
2020,08,14,12,40,23.90
2020,08,14,12,41,24.00
2020,08,14,12,42,24.10
2020,08,14,12,43,24.10
2020,08,14,12,44,24.10
2020,08,14,12,45,24.10
2020,08,14,12,46,24.20
2020,08,14,12,47,24.20
2020,08,14,12,48,24.30
2020,08,14,12,49,24.30
2020,08,14,12,50,24.40
2020,08,14,12,51,24.50
2020,08,14,12,52,24.60
2020,08,14,12,53,24.70
2020,08,14,12,54,24.70
2020,08,14,12,55,24.80
2020,08,14,12,56,24.90
2020,08,14,12,57,24.90
2020,08,14,12,58,24.80
2020,08,14,12,59,24.70
2020,08,14,13,00,24.60
2020,08,14,13,01,24.60
2020,08,14,13,02,24.50
2020,08,14,13,03,24.40
2020,08,14,13,04,24.40
2020,08,14,13,05,24.40
2020,08,14,13,06,24.50
2020,08,14,13,07,24.70
2020,08,14,13,08,24.80
2020,08,14,13,09,24.90
2020,08,14,13,10,25.00
2020,08,14,13,11,25.00
2020,08,14,13,12,25.10
2020,08,14,13,13,25.20
2020,08,14,13,14,25.30
2020,08,14,13,15,25.30
2020,08,14,13,16,25.40
2020,08,14,13,17,25.40
2020,08,14,13,18,25.40
2020,08,14,13,19,25.50
2020,08,14,13,20,25.60
2020,08,14,13,21,25.70
2020,08,14,13,22,25.80
2020,08,14,13,23,25.80
2020,08,14,13,24,25.80
2020,08,14,13,25,25.80
2020,08,14,13,26,25.80
2020,08,14,13,27,25.80
2020,08,14,13,28,25.80
2020,08,14,13,29,25.80
2020,08,14,13,30,25.80
2020,08,14,13,31,25.80
2020,08,14,13,32,25.80
2020,08,14,13,33,25.80
2020,08,14,13,34,25.80
2020,08,14,13,35,25.80
2020,08,14,13,36,25.80
2020,08,14,13,37,25.70
2020,08,14,13,38,25.60
2020,08,14,13,39,25.60
2020,08,14,13,40,25.60
2020,08,14,13,41,25.60
2020,08,14,13,42,25.70
2020,08,14,13,43,25.80
2020,08,14,13,44,25.90
2020,08,14,13,45,26.10
2020,08,14,13,46,26.20
2020,08,14,13,47,26.30
2020,08,14,13,48,26.40
2020,08,14,13,49,26.50
2020,08,14,13,50,26.60
2020,08,14,13,51,26.60
2020,08,14,13,52,26.70
2020,08,14,13,53,26.70
2020,08,14,13,54,26.70
2020,08,14,13,55,26.70
2020,08,14,13,56,26.80
2020,08,14,13,57,26.80
2020,08,14,13,58,26.80
2020,08,14,13,59,26.80
2020,08,14,14,00,26.80
2020,08,14,14,01,26.80
2020,08,14,14,02,26.70
2020,08,14,14,03,26.70
2020,08,14,14,04,26.70
2020,08,14,14,05,26.70
2020,08,14,14,06,26.70
2020,08,14,14,07,26.80
2020,08,14,14,08,26.80
2020,08,14,14,09,26.80
2020,08,14,14,10,26.90
2020,08,14,14,11,26.90
2020,08,14,14,12,27.00
2020,08,14,14,13,27.00
2020,08,14,14,14,27.00
2020,08,14,14,15,27.00
2020,08,14,14,16,27.00
2020,08,14,14,17,27.10
2020,08,14,14,18,27.10
2020,08,14,14,19,27.10
2020,08,14,14,20,27.10
2020,08,14,14,21,27.10
2020,08,14,14,22,27.20
2020,08,14,14,23,27.20
2020,08,14,14,24,27.20
2020,08,14,14,25,27.20
2020,08,14,14,26,27.10
2020,08,14,14,27,27.00
2020,08,14,14,28,27.10
2020,08,14,14,29,27.10
2020,08,14,14,30,27.10
2020,08,14,14,31,27.10
2020,08,14,14,32,27.00
2020,08,14,14,33,27.00
2020,08,14,14,34,27.00
2020,08,14,14,35,27.00
2020,08,14,14,36,27.00
2020,08,14,14,37,27.10
2020,08,14,14,38,27.10
2020,08,14,14,39,27.20
2020,08,14,14,40,27.20
2020,08,14,14,41,27.30
2020,08,14,14,42,27.30
2020,08,14,14,43,27.30
2020,08,14,14,44,27.30
2020,08,14,14,45,27.30
2020,08,14,14,46,27.30
2020,08,14,14,47,27.30
2020,08,14,14,48,27.40
2020,08,14,14,49,27.40
2020,08,14,14,50,27.40
2020,08,14,14,51,27.50
2020,08,14,14,52,27.40
2020,08,14,14,53,27.40
2020,08,14,14,54,27.40
2020,08,14,14,55,27.40
2020,08,14,14,56,27.50
2020,08,14,14,57,27.50
2020,08,14,14,58,27.60
2020,08,14,14,59,27.60
2020,08,14,15,00,27.60
2020,08,14,15,01,27.60
2020,08,14,15,02,27.60
2020,08,14,15,03,27.60
2020,08,14,15,04,27.50
2020,08,14,15,05,27.60
2020,08,14,15,06,27.60
2020,08,14,15,07,27.70
2020,08,14,15,08,27.70
2020,08,14,15,09,27.70
2020,08,14,15,10,27.70
2020,08,14,15,11,27.70
2020,08,14,15,12,27.70
2020,08,14,15,13,27.80
2020,08,14,15,14,27.80
2020,08,14,15,15,27.90
2020,08,14,15,16,28.00
2020,08,14,15,17,28.00
2020,08,14,15,18,28.00
2020,08,14,15,19,28.10
2020,08,14,15,20,28.10
2020,08,14,15,21,28.10
2020,08,14,15,22,28.20
2020,08,14,15,23,28.20
2020,08,14,15,24,28.20
2020,08,14,15,25,28.30
2020,08,14,15,26,28.40
2020,08,14,15,27,28.50
2020,08,14,15,28,28.60
2020,08,14,15,29,28.60
2020,08,14,15,30,28.70
2020,08,14,15,31,28.70
2020,08,14,15,32,28.70
2020,08,14,15,33,28.80
2020,08,14,15,34,28.80
2020,08,14,15,35,28.80
2020,08,14,15,36,28.80
2020,08,14,15,37,28.80
2020,08,14,15,38,28.80
2020,08,14,15,39,28.80
2020,08,14,15,40,28.90
2020,08,14,15,41,28.90
2020,08,14,15,42,28.90
2020,08,14,15,43,29.00
2020,08,14,15,44,29.00
2020,08,14,15,45,29.10
2020,08,14,15,46,29.10
2020,08,14,15,47,29.10
2020,08,14,15,48,29.00
2020,08,14,15,49,28.90
2020,08,14,15,50,28.90
2020,08,14,15,51,29.00
2020,08,14,15,52,29.00
2020,08,14,15,53,29.00
2020,08,14,15,54,29.00
2020,08,14,15,55,28.90
2020,08,14,15,56,28.90
2020,08,14,15,57,28.90
2020,08,14,15,58,28.90
2020,08,14,15,59,28.80
2020,08,14,16,00,28.70
2020,08,14,16,01,28.60
2020,08,14,16,02,28.50
2020,08,14,16,03,28.40
2020,08,14,16,04,28.30
2020,08,14,16,05,28.30
2020,08,14,16,06,28.20
2020,08,14,16,07,28.20
2020,08,14,16,08,28.20
2020,08,14,16,09,28.20
2020,08,14,16,10,28.20
2020,08,14,16,11,28.20
2020,08,14,16,12,28.30
2020,08,14,16,13,28.30
2020,08,14,16,14,28.30
2020,08,14,16,15,28.40
2020,08,14,16,16,28.40
2020,08,14,16,17,28.30
2020,08,14,16,18,28.30
2020,08,14,16,19,28.40
2020,08,14,16,20,28.30
2020,08,14,16,21,28.20
2020,08,14,16,22,28.20
2020,08,14,16,23,28.20
2020,08,14,16,24,28.10
2020,08,14,16,25,28.00
2020,08,14,16,26,27.90
2020,08,14,16,27,27.80
2020,08,14,16,28,27.80
2020,08,14,16,29,27.80
2020,08,14,16,30,27.80
2020,08,14,16,31,27.80
2020,08,14,16,32,27.80
2020,08,14,16,33,27.70
2020,08,14,16,34,27.70
2020,08,14,16,35,27.80
2020,08,14,16,36,27.80
2020,08,14,16,37,27.90
2020,08,14,16,38,27.90
2020,08,14,16,39,27.90
2020,08,14,16,40,27.90
2020,08,14,16,41,28.00
2020,08,14,16,42,28.10
2020,08,14,16,43,28.10
2020,08,14,16,44,28.20
2020,08,14,16,45,28.20
2020,08,14,16,46,28.30
2020,08,14,16,47,28.30
2020,08,14,16,48,28.40
2020,08,14,16,49,28.40
2020,08,14,16,50,28.40
2020,08,14,16,51,28.40
2020,08,14,16,52,28.30
2020,08,14,16,53,28.30
2020,08,14,16,54,28.20
2020,08,14,16,55,28.10
2020,08,14,16,56,28.10
2020,08,14,16,57,28.00
2020,08,14,16,58,27.90
2020,08,14,16,59,27.90
2020,08,14,17,00,27.80
2020,08,14,17,01,27.70
2020,08,14,17,02,27.60
2020,08,14,17,03,27.50
2020,08,14,17,04,27.50
2020,08,14,17,05,27.40
2020,08,14,17,06,27.40
2020,08,14,17,07,27.40
2020,08,14,17,08,27.30
2020,08,14,17,09,27.30
2020,08,14,17,10,27.20
2020,08,14,17,11,27.20
2020,08,14,17,12,27.10
2020,08,14,17,13,27.10
2020,08,14,17,14,27.10
2020,08,14,17,15,27.10
2020,08,14,17,16,27.20
2020,08,14,17,17,27.20
2020,08,14,17,18,27.20
2020,08,14,17,19,27.20
2020,08,14,17,20,27.20